Location: El Bakhil
(32.7726°N, 5.5387°W)
Time: 10:51:01
(UTC+00:00)

Helios 1A Rocket - Pass Details

Date: 03 March 2021
Orbit: 563 x 585 km, 98.3° (Epoch: 16 April)

Event Time Altitude Azimuth Distance (km) Brightness Sun altitude
Rises 19:10:10 0° 151° (SSE) 2,770 6.1 -11.1°
Reaches altitude 10° 19:12:23 10° 144° (SE) 1,872 5.2 -11.6°
Maximum altitude 19:16:13 42° 74° (ENE) 821 3.2 -12.4°
Drops below altitude 10° 19:20:03 10° 3° (N) 1,872 5.5 -13.2°
Sets 19:22:15 0° 356° (N) 2,769 6.5 -13.7°
